Lewisburg, WV

6:15 PM EST on December 05, 2019 (GMT -0500)
Greenbrier Valley

Weather History for KLWB - November, 2019

Change the Weather History Date:

Sunday, November 17, 2019

  Actual Average Record
Temperature  
Mean Temperature 36 °F -  
Max Temperature 46 °F 54 °F 65 °F (1993)
Min Temperature 25 °F 29 °F 18 °F (1996)
Degree Days  
Heating Degree Days 30    
Moisture  
Dew Point 24 °F    
Average Humidity 73    
Maximum Humidity 94    
Minimum Humidity 53    
Precipitation  
Precipitation 0.00 in - - ()
Sea Level Pressure  
Sea Level Pressure 30.09 in    
Wind  
Wind Speed 4 mph (NE)    
Max Wind Speed 8 mph    
Max Gust Speed -    
Visibility 10 miles    
Events      
Averages and records for this station are not official NWS values.
T = Trace of Precipitation, MM = Missing Value Source: NWS Daily Summary

Daily Weather History Graph

Daily Weather History Graph

Search for Another Location

Airport or City:

Astronomy

Nov. 17, 2019 Rise Set
Actual Time 7:03 AM EST 5:08 PM EST
Civil Twilight 6:35 AM EST 5:36 PM EST
Nautical Twilight 6:03 AM EST 6:08 PM EST
Astronomical Twilight 5:32 AM EST 6:39 PM EST
Moon 9:45 PM EST (11/17) 11:46 AM EST (11/17)
Length of Visible Light 11h 01m
Length of Day
10h 04m
Waning Gibbous, 73% of the Moon is Illuminated
Nov 17
Waning Gibbous
Nov 19
Last Quarter
Nov 26
New
Dec 4
First Quarter
Dec 12
Full

Hourly Weather History & Observations

Time (EST) Temp. Windchill Dew Point Humidity Pressure Visibility Wind Dir Wind Speed Gust Speed Precip Events Conditions
12:15 AM 27.5 °F 20.2 °F 18.1 °F 68% 30.21 in 10.0 mi NE 6.9 mph - N/A   Clear
12:35 AM 27.3 °F 20.9 °F 18.0 °F 68% 30.21 in 10.0 mi NE 5.8 mph - N/A   Clear
12:55 AM 26.6 °F 20.0 °F 17.6 °F 69% 30.21 in 10.0 mi NE 5.8 mph - N/A   Clear
1:15 AM 27.1 °F 20.7 °F 17.1 °F 66% 30.21 in 10.0 mi NE 5.8 mph - N/A   Clear
1:35 AM 26.6 °F 22.6 °F 16.9 °F 67% 30.21 in 10.0 mi NE 3.5 mph - N/A   Clear
1:55 AM 25.7 °F 21.5 °F 16.5 °F 68% 30.21 in 10.0 mi NE 3.5 mph - N/A   Clear
2:15 AM 29.1 °F 23.0 °F 17.1 °F 61% 30.20 in 10.0 mi NE 5.8 mph - N/A   Mostly Cloudy
2:35 AM 29.3 °F 23.2 °F 17.6 °F 62% 30.20 in 10.0 mi NE 5.8 mph - N/A   Overcast
2:55 AM 29.8 °F 23.9 °F 17.4 °F 60% 30.19 in 10.0 mi ENE 5.8 mph - N/A   Overcast
3:15 AM 29.8 °F 24.9 °F 17.2 °F 59% 30.19 in 10.0 mi NE 4.6 mph - N/A   Overcast
3:35 AM 29.3 °F 25.6 °F 17.2 °F 61% 30.19 in 10.0 mi NE 3.5 mph - N/A   Overcast
3:55 AM 29.3 °F 24.3 °F 17.6 °F 62% 30.19 in 10.0 mi NNE 4.6 mph - N/A   Overcast
4:15 AM 29.1 °F - 17.4 °F 62% 30.19 in 10.0 mi Calm Calm - N/A   Overcast
4:35 AM 29.1 °F 25.4 °F 17.4 °F 62% 30.18 in 10.0 mi NE 3.5 mph - N/A   Overcast
4:55 AM 29.3 °F 25.6 °F 17.6 °F 62% 30.18 in 10.0 mi ENE 3.5 mph - N/A   Overcast
5:15 AM 29.7 °F 26.1 °F 18.1 °F 62% 30.18 in 10.0 mi NE 3.5 mph - N/A   Overcast
5:35 AM 29.8 °F 26.3 °F 18.5 °F 63% 30.18 in 10.0 mi ENE 3.5 mph - N/A   Overcast
5:55 AM 29.8 °F 26.3 °F 20.3 °F 68% 30.18 in 10.0 mi ENE 3.5 mph - N/A   Overcast
6:15 AM 29.8 °F - 22.3 °F 73% 30.17 in 10.0 mi Calm Calm - N/A   Overcast
6:35 AM 29.7 °F - 23.5 °F 78% 30.18 in 10.0 mi Calm Calm - N/A   Overcast
6:55 AM 29.7 °F 24.7 °F 24.3 °F 80% 30.18 in 10.0 mi ENE 4.6 mph - N/A   Overcast
7:15 AM 30.0 °F 26.5 °F 24.6 °F 80% 30.18 in 7.0 mi ENE 3.5 mph - N/A   Overcast
7:35 AM 30.6 °F 27.1 °F 25.2 °F 80% 30.17 in 10.0 mi NE 3.5 mph - N/A   Overcast
7:55 AM 31.3 °F 27.9 °F 26.2 °F 82% 30.17 in 10.0 mi NE 3.5 mph - N/A   Overcast
8:15 AM 32.0 °F 27.5 °F 26.2 °F 79% 30.16 in 10.0 mi NE 4.6 mph - N/A   Overcast
9:55 AM 35.6 °F 29.9 °F 28.4 °F 75% 30.14 in 10.0 mi East 6.9 mph - N/A   Unknown
10:55 AM 37.4 °F 33.8 °F 30.2 °F 75% 30.13 in 10.0 mi SE 4.6 mph - N/A   Unknown
11:55 AM 41.0 °F 37.1 °F 30.2 °F 65% 30.11 in 10.0 mi ESE 5.8 mph - N/A   Scattered Clouds
12:55 PM 44.6 °F 40.2 °F 30.2 °F 57% 30.06 in 10.0 mi SE 8.1 mph - N/A   Clear
1:55 PM 46.4 °F 42.9 °F 30.2 °F 53% 30.03 in 10.0 mi East 6.9 mph - N/A   Clear
2:55 PM 46.4 °F 42.4 °F 30.2 °F 53% 30.00 in 10.0 mi East 8.1 mph - N/A   Clear
3:55 PM 44.6 °F 42.2 °F 30.2 °F 57% 29.99 in 10.0 mi ESE 4.6 mph - N/A   Clear
4:59 PM 41.0 °F 39.0 °F 30.2 °F 65% 29.98 in 10.0 mi East 3.5 mph - N/A   Clear
5:59 PM 39.2 °F 35.9 °F 30.2 °F 70% 29.98 in 10.0 mi East 4.6 mph - N/A   Clear
6:59 PM 37.4 °F - 30.2 °F 75% 29.98 in 10.0 mi Calm Calm - N/A   Clear
7:15 PM 35.8 °F - 30.6 °F 81% 29.98 in 10.0 mi Calm Calm - N/A   Clear
7:35 PM 34.5 °F - 29.7 °F 82% 29.98 in 10.0 mi Calm Calm - N/A   Clear
8:15 PM 32.5 °F 29.3 °F 29.1 °F 87% 29.98 in 10.0 mi North 3.5 mph - N/A   Clear
8:35 PM 31.3 °F - 27.5 °F 86% 29.97 in 10.0 mi Calm Calm - N/A   Clear
8:55 PM 29.8 °F - 26.6 °F 88% 29.97 in 10.0 mi Calm Calm - N/A   Clear
9:15 PM 32.0 °F 28.7 °F 29.5 °F 90% 29.96 in 10.0 mi North 3.5 mph - N/A   Clear
9:35 PM 32.0 °F 27.5 °F 28.9 °F 88% 29.96 in 10.0 mi NNE 4.6 mph - N/A   Clear
9:55 PM 31.8 °F 27.3 °F 28.9 °F 89% 29.96 in 10.0 mi NNE 4.6 mph - N/A   Clear
10:15 PM 30.2 °F 26.7 °F 28.4 °F 93% 29.96 in 10.0 mi NNE 3.5 mph - N/A   Scattered Clouds
10:35 PM 31.5 °F 26.8 °F 28.6 °F 89% 29.94 in 10.0 mi North 4.6 mph - N/A   Mostly Cloudy
10:55 PM 31.1 °F - 28.6 °F 90% 29.93 in 10.0 mi Calm Calm - N/A   Overcast
11:15 PM 32.0 °F 27.5 °F 29.8 °F 92% 29.92 in 10.0 mi North 4.6 mph - N/A   Overcast
11:35 PM 32.2 °F - 30.6 °F 94% 29.92 in 10.0 mi Calm Calm - N/A   Overcast
11:55 PM 33.4 °F 28.1 °F 32.0 °F 94% 29.92 in 10.0 mi NNE 5.8 mph - N/A   Overcast